| time (UTC) | temp F | wind direction | speed MPH | gust MPH | rain 1hr in | rain 24hr in | rain mn in | humidity % | barometer mb |
| 20260906224028 | 98 | 59 | 3.0 | 13.0 | 0.00 | 0.00 | 0.00 | 40 | 1012.1 |
| 20260906223530 | 98 | 129 | 5.0 | 13.0 | 0.00 | 0.00 | 0.00 | 40 | 1012.1 |
| 20260906223047 | 98 | 173 | 2.0 | 8.0 | 0.00 | 0.00 | 0.00 | 41 | 1012.1 |
| 20260906222528 | 98 | 132 | 2.0 | 14.0 | 0.00 | 0.00 | 0.00 | 40 | 1012.2 |
| 20260906222030 | 98 | 64 | 7.0 | 14.0 | 0.00 | 0.00 | 0.00 | 39 | 1012.3 |
| 20260906221547 | 99 | 19 | 3.0 | 10.0 | 0.00 | 0.00 | 0.00 | 38 | 1012.2 |
| 20260906221027 | 98 | 55 | 3.0 | 16.0 | 0.00 | 0.00 | 0.00 | 39 | 1012.2 |
| 20260906220533 | 99 | 91 | 3.0 | 16.0 | 0.00 | 0.00 | 0.00 | 41 | 1012.2 |
| 20260906220046 | 98 | 103 | 5.0 | 13.0 | 0.00 | 0.00 | 0.00 | 40 | 1012.2 |
| 20260906215531 | 99 | 116 | 4.0 | 13.0 | 0.00 | 0.00 | 0.00 | 38 | 1012.2 |
| 20260906215028 | 100 | 109 | 5.0 | 13.0 | 0.00 | 0.00 | 0.00 | 39 | 1012.2 |
| 20260906214552 | 99 | 62 | 3.0 | 12.0 | 0.00 | 0.00 | 0.00 | 39 | 1012.3 |
| 20260906214028 | 99 | 161 | 4.0 | 12.0 | 0.00 | 0.00 | 0.00 | 38 | 1012.3 |
| 20260906213528 | 100 | 114 | 3.0 | 11.0 | 0.00 | 0.00 | 0.00 | 38 | 1012.4 |
| 20260906213051 | 100 | 50 | 3.0 | 14.0 | 0.00 | 0.00 | 0.00 | 39 | 1012.4 |
| 20260906212527 | 99 | 31 | 3.0 | 16.0 | 0.00 | 0.00 | 0.00 | 39 | 1012.4 |
| 20260906212028 | 99 | 117 | 8.0 | 16.0 | 0.00 | 0.00 | 0.00 | 39 | 1012.6 |
| 20260906211549 | 99 | 108 | 4.0 | 14.0 | 0.00 | 0.00 | 0.00 | 40 | 1012.6 |
| 20260906211029 | 100 | 179 | 4.0 | 14.0 | 0.00 | 0.00 | 0.00 | 38 | 1012.8 |
| 20260906210527 | 100 | 177 | 4.0 | 11.0 | 0.00 | 0.00 | 0.00 | 38 | 1012.9 |
| 20260906210051 | 100 | 38 | 3.0 | 11.0 | 0.00 | 0.00 | 0.00 | 38 | 1012.9 |
| 20260906205528 | 100 | 113 | 4.0 | 10.0 | 0.00 | 0.00 | 0.00 | 38 | 1013.1 |
| 20260906205027 | 100 | 24 | 2.0 | 11.0 | 0.00 | 0.00 | 0.00 | 40 | 1013.1 |
| 20260906204601 | 100 | 80 | 4.0 | 11.0 | 0.00 | 0.00 | 0.00 | 39 | 1013.2 |
| 20260906204027 | 100 | 103 | 4.0 | 12.0 | 0.00 | 0.00 | 0.00 | 39 | 1013.2 |
| 20260906203529 | 100 | 32 | 4.0 | 12.0 | 0.00 | 0.00 | 0.00 | 40 | 1013.3 |
| 20260906203042 | 99 | 173 | 5.0 | 12.0 | 0.00 | 0.00 | 0.00 | 39 | 1013.2 |
| 20260906202528 | 99 | 46 | 2.0 | 15.0 | 0.00 | 0.00 | 0.00 | 41 | 1013.4 |
| 20260906202028 | 98 | 131 | 5.0 | 15.0 | 0.00 | 0.00 | 0.00 | 41 | 1013.5 |
| 20260906201604 | 98 | 167 | 4.0 | 10.0 | 0.00 | 0.00 | 0.00 | 41 | 1013.6 |
| 20260906201029 | 98 | 59 | 5.0 | 10.0 | 0.00 | 0.00 | 0.00 | 41 | 1013.6 |
| 20260906200530 | 98 | 0 | 2.0 | 12.0 | 0.00 | 0.00 | 0.00 | 42 | 1013.7 |
| 20260906200046 | 98 | 67 | 3.0 | 12.0 | 0.00 | 0.00 | 0.00 | 42 | 1013.7 |
| 20260906195529 | 99 | 146 | 4.0 | 12.0 | 0.00 | 0.00 | 0.00 | 42 | 1013.9 |
| 20260906195027 | 97 | 46 | 2.0 | 14.0 | 0.00 | 0.00 | 0.00 | 44 | 1013.8 |
| 20260906194545 | 97 | 84 | 5.0 | 14.0 | 0.00 | 0.00 | 0.00 | 43 | 1013.9 |
| 20260906194028 | 97 | 65 | 2.0 | 11.0 | 0.00 | 0.00 | 0.00 | 44 | 1013.9 |
| 20260906193528 | 97 | 85 | 4.0 | 11.0 | 0.00 | 0.00 | 0.00 | 45 | 1014.0 |
| 20260906193044 | 96 | 61 | 2.0 | 12.0 | 0.00 | 0.00 | 0.00 | 46 | 1014.1 |
| 20260906192528 | 97 | 115 | 4.0 | 12.0 | 0.00 | 0.00 | 0.00 | 45 | 1014.1 |
| 20260906192028 | 97 | 163 | 2.0 | 11.0 | 0.00 | 0.00 | 0.00 | 45 | 1014.1 |
| 20260906191551 | 97 | 76 | 4.0 | 13.0 | 0.00 | 0.00 | 0.00 | 45 | 1014.2 |
| 20260906191029 | 97 | 175 | 6.0 | 13.0 | 0.00 | 0.00 | 0.00 | 45 | 1014.3 |
| 20260906190528 | 96 | 68 | 3.0 | 11.0 | 0.00 | 0.00 | 0.00 | 46 | 1014.4 |
| 20260906190050 | 96 | 119 | 4.0 | 13.0 | 0.00 | 0.00 | 0.00 | 46 | 1014.4 |
| 20260906185528 | 96 | 207 | 6.0 | 13.0 | 0.00 | 0.00 | 0.00 | 46 | 1014.5 |
| 20260906185028 | 96 | 55 | 3.0 | 10.0 | 0.00 | 0.00 | 0.00 | 46 | 1014.5 |
| 20260906184547 | 96 | 64 | 3.0 | 14.0 | 0.00 | 0.00 | 0.00 | 47 | 1014.6 |
| 20260906184028 | 96 | 46 | 4.0 | 14.0 | 0.00 | 0.00 | 0.00 | 46 | 1014.7 |
| 20260906183531 | 95 | 95 | 4.0 | 14.0 | 0.00 | 0.00 | 0.00 | 47 | 1014.6 |
| 20260906183047 | 95 | 146 | 5.0 | 13.0 | 0.00 | 0.00 | 0.00 | 48 | 1014.7 |
| 20260906182527 | 95 | 71 | 4.0 | 11.0 | 0.00 | 0.00 | 0.00 | 47 | 1014.7 |
| 20260906182030 | 95 | 62 | 5.0 | 12.0 | 0.00 | 0.00 | 0.00 | 47 | 1014.8 |
| 20260906181554 | 94 | 138 | 5.0 | 14.0 | 0.00 | 0.00 | 0.00 | 48 | 1014.8 |
| 20260906181027 | 94 | 172 | 3.0 | 14.0 | 0.00 | 0.00 | 0.00 | 48 | 1015.0 |
| 20260906180544 | 95 | 57 | 4.0 | 13.0 | 0.00 | 0.00 | 0.00 | 47 | 1015.0 |
| 20260906175529 | 94 | 43 | 5.0 | 16.0 | 0.00 | 0.00 | 0.00 | 47 | 1015.1 |
| 20260906175026 | 94 | 76 | 7.0 | 16.0 | 0.00 | 0.00 | 0.00 | 48 | 1015.1 |
| 20260906174552 | 94 | 110 | 5.0 | 12.0 | 0.00 | 0.00 | 0.00 | 48 | 1015.2 |
| 20260906174028 | 93 | 101 | 2.0 | 11.0 | 0.00 | 0.00 | 0.00 | 50 | 1015.3 |
| 20260906173527 | 94 | 175 | 4.0 | 11.0 | 0.00 | 0.00 | 0.00 | 50 | 1015.4 |
| 20260906173045 | 93 | 163 | 3.0 | 9.0 | 0.00 | 0.00 | 0.00 | 51 | 1015.5 |
| 20260906172530 | 93 | 118 | 2.0 | 12.0 | 0.00 | 0.00 | 0.00 | 51 | 1015.6 |
| 20260906172027 | 93 | 112 | 3.0 | 12.0 | 0.00 | 0.00 | 0.00 | 51 | 1015.6 |
| 20260906171552 | 92 | 33 | 4.0 | 12.0 | 0.00 | 0.00 | 0.00 | 52 | 1015.7 |
| 20260906171027 | 92 | 42 | 4.0 | 11.0 | 0.00 | 0.00 | 0.00 | 52 | 1015.7 |
| 20260906170528 | 92 | 79 | 3.0 | 13.0 | 0.00 | 0.00 | 0.00 | 55 | 1015.7 |
| 20260906170051 | 91 | 148 | 6.0 | 13.0 | 0.00 | 0.00 | 0.00 | 55 | 1015.8 |
| 20260906165526 | 91 | 158 | 4.0 | 12.0 | 0.00 | 0.00 | 0.00 | 54 | 1015.8 |
| 20260906165025 | 92 | 46 | 5.0 | 12.0 | 0.00 | 0.00 | 0.00 | 54 | 1015.9 |
| 20260906164549 | 92 | 63 | 2.0 | 10.0 | 0.00 | 0.00 | 0.00 | 54 | 1015.9 |
| 20260906164028 | 91 | 84 | 3.0 | 8.0 | 0.00 | 0.00 | 0.00 | 55 | 1016.0 |
| 20260906163525 | 91 | 151 | 3.0 | 8.0 | 0.00 | 0.00 | 0.00 | 56 | 1016.1 |
| 20260906163045 | 90 | 161 | 2.0 | 14.0 | 0.00 | 0.00 | 0.00 | 58 | 1016.1 |
| 20260906162532 | 90 | 179 | 5.0 | 14.0 | 0.00 | 0.00 | 0.00 | 58 | 1016.0 |
| 20260906162027 | 90 | 123 | 2.0 | 8.0 | 0.00 | 0.00 | 0.00 | 58 | 1016.0 |
| 20260906161557 | 90 | 74 | 1.0 | 9.0 | 0.00 | 0.00 | 0.00 | 59 | 1015.9 |
| 20260906161028 | 90 | 58 | 2.0 | 9.0 | 0.00 | 0.00 | 0.00 | 58 | 1015.9 |
| 20260906160528 | 89 | 57 | 3.0 | 9.0 | 0.00 | 0.00 | 0.00 | 59 | 1015.9 |
| 20260906160048 | 89 | 145 | 1.0 | 12.0 | 0.00 | 0.00 | 0.00 | 61 | 1015.9 |
| 20260906155529 | 89 | 85 | 2.0 | 12.0 | 0.00 | 0.00 | 0.00 | 60 | 1016.0 |
| 20260906155027 | 89 | 31 | 3.0 | 8.0 | 0.00 | 0.00 | 0.00 | 61 | 1015.9 |
| 20260906154557 | 89 | 71 | 3.0 | 8.0 | 0.00 | 0.00 | 0.00 | 62 | 1015.9 |
| 20260906154027 | 88 | 47 | 2.0 | 8.0 | 0.00 | 0.00 | 0.00 | 64 | 1015.9 |
| 20260906153527 | 88 | 73 | 2.0 | 11.0 | 0.00 | 0.00 | 0.00 | 63 | 1015.8 |
| 20260906153052 | 88 | 73 | 3.0 | 11.0 | 0.00 | 0.00 | 0.00 | 64 | 1015.7 |
| 20260906152529 | 88 | 58 | 3.0 | 11.0 | 0.00 | 0.00 | 0.00 | 66 | 1015.7 |
| 20260906152027 | 87 | 0 | 3.0 | 8.0 | 0.00 | 0.00 | 0.00 | 66 | 1015.6 |
| 20260906151540 | 87 | 80 | 2.0 | 7.0 | 0.00 | 0.00 | 0.00 | 67 | 1015.6 |
| 20260906151028 | 87 | 50 | 1.0 | 8.0 | 0.00 | 0.00 | 0.00 | 67 | 1015.6 |
| 20260906150527 | 86 | 0 | 3.0 | 8.0 | 0.00 | 0.00 | 0.00 | 68 | 1015.5 |
| 20260906150100 | 86 | 0 | 1.0 | 8.0 | 0.00 | 0.00 | 0.00 | 68 | 1015.6 |
| 20260906145528 | 86 | 34 | 3.0 | 8.0 | 0.00 | 0.00 | 0.00 | 69 | 1015.5 |
| 20260906145028 | 86 | 57 | 2.0 | 5.0 | 0.00 | 0.00 | 0.00 | 70 | 1015.6 |
| 20260906144546 | 86 | 88 | 1.0 | 6.0 | 0.00 | 0.00 | 0.00 | 70 | 1015.5 |
| 20260906144027 | 85 | 69 | 2.0 | 6.0 | 0.00 | 0.00 | 0.00 | 71 | 1015.5 |
| 20260906143528 | 85 | 45 | 3.0 | 5.0 | 0.00 | 0.00 | 0.00 | 71 | 1015.5 |
| 20260906143047 | 84 | 71 | 0.0 | 5.0 | 0.00 | 0.00 | 0.00 | 72 | 1015.6 |
| 20260906142533 | 84 | 74 | 2.0 | 4.0 | 0.00 | 0.00 | 0.00 | 73 | 1015.7 |
| 20260906142028 | 84 | 0 | 1.0 | 4.0 | 0.00 | 0.00 | 0.00 | 72 | 1015.7 |
| 20260906141555 | 84 | 0 | 0.0 | 4.0 | 0.00 | 0.00 | 0.00 | 72 | 1015.7 |
| 20260906141028 | 84 | 86 | 1.0 | 4.0 | 0.00 | 0.00 | 0.00 | 73 | 1015.7 |
| 20260906140528 | 84 | 86 | 2.0 | 4.0 | 0.00 | 0.00 | 0.00 | 73 | 1015.6 |
| 20260906140058 | 83 | 86 | 1.0 | 4.0 | 0.00 | 0.00 | 0.00 | 74 | 1015.5 |
| 20260906135528 | 83 | 0 | 1.0 | 4.0 | 0.00 | 0.00 | 0.00 | 75 | 1015.5 |
| 20260906135027 | 83 | 86 | 1.0 | 4.0 | 0.00 | 0.00 | 0.00 | 75 | 1015.4 |
| 20260906134546 | 83 | 86 | 1.0 | 6.0 | 0.00 | 0.00 | 0.00 | 76 | 1015.6 |
| 20260906134028 | 82 | 86 | 3.0 | 6.0 | 0.00 | 0.00 | 0.00 | 76 | 1015.4 |
| 20260906133527 | 82 | 51 | 1.0 | 4.0 | 0.00 | 0.00 | 0.00 | 77 | 1015.4 |
| 20260906133047 | 81 | 51 | 1.0 | 4.0 | 0.00 | 0.00 | 0.00 | 78 | 1015.6 |
| 20260906132527 | 81 | 51 | 2.0 | 4.0 | 0.00 | 0.00 | 0.00 | 79 | 1015.6 |
| 20260906132024 | 81 | 41 | 1.0 | 3.0 | 0.00 | 0.00 | 0.00 | 80 | 1015.6 |
| 20260906131600 | 80 | 70 | 1.0 | 4.0 | 0.00 | 0.00 | 0.00 | 81 | 1015.6 |
| 20260906131028 | 80 | 70 | 1.0 | 5.0 | 0.00 | 0.00 | 0.00 | 81 | 1015.5 |
| 20260906130527 | 79 | 70 | 1.0 | 5.0 | 0.00 | 0.00 | 0.00 | 82 | 1015.6 |
| 20260906130056 | 79 | 70 | 2.0 | 4.0 | 0.00 | 0.00 | 0.00 | 82 | 1015.5 |
| 20260906125528 | 79 | 67 | 2.0 | 4.0 | 0.00 | 0.00 | 0.00 | 83 | 1015.4 |
| 20260906125028 | 79 | 67 | 1.0 | 4.0 | 0.00 | 0.00 | 0.00 | 83 | 1015.4 |
| 20260906124546 | 78 | 67 | 1.0 | 4.0 | 0.00 | 0.00 | 0.00 | 83 | 1015.3 |
| 20260906124028 | 78 | 160 | 0.0 | 4.0 | 0.00 | 0.00 | 0.00 | 83 | 1015.4 |
| 20260906123529 | 78 | 160 | 1.0 | 4.0 | 0.00 | 0.00 | 0.00 | 83 | 1015.2 |
| 20260906123050 | 78 | 160 | 1.0 | 5.0 | 0.00 | 0.00 | 0.00 | 83 | 1015.2 |
| 20260906122529 | 78 | 160 | 1.0 | 5.0 | 0.00 | 0.00 | 0.00 | 83 | 1015.2 |
| 20260906122026 | 78 | 160 | 1.0 | 5.0 | 0.00 | 0.00 | 0.00 | 83 | 1015.1 |
| 20260906121555 | 78 | 160 | 0.0 | 4.0 | 0.00 | 0.00 | 0.00 | 83 | 1015.1 |
| 20260906121026 | 78 | 0 | 1.0 | 4.0 | 0.00 | 0.00 | 0.00 | 83 | 1015.0 |
| 20260906120525 | 78 | 160 | 0.0 | 2.0 | 0.00 | 0.00 | 0.00 | 83 | 1015.0 |
| 20260906120041 | 78 | 0 | 0.0 | 2.0 | 0.00 | 0.00 | 0.00 | 83 | 1014.9 |
| 20260906115526 | 78 | 160 | 1.0 | 2.0 | 0.00 | 0.00 | 0.00 | 83 | 1014.9 |
| 20260906115028 | 78 | 160 | 0.0 | 2.0 | 0.00 | 0.00 | 0.00 | 83 | 1014.9 |
| 20260906114559 | 78 | 0 | 0.0 | 2.0 | 0.00 | 0.00 | 0.00 | 83 | 1014.8 |
| 20260906114027 | 78 | 0 | 0.0 | 2.0 | 0.00 | 0.00 | 0.00 | 83 | 1014.9 |
| 20260906113528 | 78 | 160 | 0.0 | 3.0 | 0.00 | 0.00 | 0.00 | 83 | 1014.7 |
| 20260906113046 | 78 | 160 | 0.0 | 4.0 | 0.00 | 0.00 | 0.00 | 83 | 1014.7 |
| 20260906112525 | 78 | 160 | 0.0 | 4.0 | 0.00 | 0.00 | 0.00 | 83 | 1014.6 |
| 20260906112031 | 78 | 160 | 0.0 | 2.0 | 0.00 | 0.00 | 0.00 | 82 | 1014.5 |
| 20260906111548 | 78 | 0 | 0.0 | 2.0 | 0.00 | 0.00 | 0.00 | 82 | 1014.5 |
| 20260906111027 | 78 | 0 | 0.0 | 2.0 | 0.00 | 0.00 | 0.00 | 82 | 1014.6 |
| 20260906110528 | 78 | 0 | 0.0 | 2.0 | 0.00 | 0.00 | 0.00 | 82 | 1014.5 |
| 20260906110042 | 78 | 160 | 0.0 | 1.0 | 0.00 | 0.00 | 0.00 | 82 | 1014.5 |
| 20260906105528 | 78 | 0 | 0.0 | 2.0 | 0.00 | 0.00 | 0.00 | 82 | 1014.4 |
| 20260906105028 | 78 | 0 | 0.0 | 3.0 | 0.00 | 0.00 | 0.00 | 83 | 1014.4 |
| 20260906104548 | 78 | 0 | 0.0 | 4.0 | 0.00 | 0.00 | 0.00 | 82 | 1014.3 |
| 20260906104028 | 78 | 160 | 0.0 | 4.0 | 0.00 | 0.00 | 0.00 | 82 | 1014.3 |
| 20260906103527 | 78 | 0 | 0.0 | 2.0 | 0.00 | 0.00 | 0.00 | 82 | 1014.3 |
| 20260906103050 | 78 | 160 | 0.0 | 1.0 | 0.00 | 0.00 | 0.00 | 82 | 1014.4 |
| 20260906102533 | 78 | 0 | 0.0 | 0.0 | 0.00 | 0.00 | 0.00 | 82 | 1014.4 |
| 20260906102028 | 78 | 0 | 0.0 | 0.0 | 0.00 | 0.00 | 0.00 | 81 | 1014.3 |
| 20260906101546 | 78 | 0 | 0.0 | 0.0 | 0.00 | 0.00 | 0.00 | 81 | 1014.3 |
| 20260906101030 | 79 | 0 | 0.0 | 0.0 | 0.00 | 0.00 | 0.00 | 81 | 1014.3 |
| 20260906100528 | 79 | 0 | 0.0 | 0.0 | 0.00 | 0.00 | 0.00 | 81 | 1014.2 |
| 20260906100056 | 79 | 0 | 0.0 | 0.0 | 0.00 | 0.00 | 0.00 | 81 | 1014.2 |
| 20260906095525 | 79 | 0 | 0.0 | 0.0 | 0.00 | 0.00 | 0.00 | 81 | 1014.2 |
| 20260906095030 | 79 | 0 | 0.0 | 0.0 | 0.00 | 0.00 | 0.00 | 80 | 1014.3 |
| 20260906094551 | 79 | 0 | 0.0 | 0.0 | 0.00 | 0.00 | 0.00 | 80 | 1014.2 |
| 20260906094028 | 79 | 0 | 0.0 | 0.0 | 0.00 | 0.00 | 0.00 | 80 | 1014.1 |
| 20260906093529 | 79 | 0 | 0.0 | 0.0 | 0.00 | 0.00 | 0.00 | 79 | 1014.0 |
| 20260906093047 | 79 | 0 | 0.0 | 0.0 | 0.00 | 0.00 | 0.00 | 79 | 1013.9 |
| 20260906092525 | 80 | 0 | 0.0 | 1.0 | 0.00 | 0.00 | 0.00 | 78 | 1013.9 |
| 20260906092028 | 80 | 0 | 0.0 | 2.0 | 0.00 | 0.00 | 0.00 | 77 | 1013.8 |
| 20260906091541 | 80 | 0 | 0.0 | 2.0 | 0.00 | 0.00 | 0.00 | 77 | 1013.7 |
| 20260906091025 | 81 | 160 | 0.0 | 4.0 | 0.00 | 0.00 | 0.00 | 77 | 1013.7 |
| 20260906090529 | 81 | 160 | 0.0 | 5.0 | 0.00 | 0.00 | 0.00 | 77 | 1013.7 |
| 20260906090057 | 81 | 160 | 2.0 | 5.0 | 0.00 | 0.00 | 0.00 | 77 | 1013.7 |
| 20260906085529 | 81 | 160 | 2.0 | 6.0 | 0.00 | 0.00 | 0.00 | 77 | 1013.6 |
| 20260906085029 | 81 | 160 | 2.0 | 8.0 | 0.00 | 0.00 | 0.00 | 76 | 1013.7 |
| 20260906084551 | 81 | 167 | 2.0 | 8.0 | 0.00 | 0.00 | 0.00 | 77 | 1013.6 |
| 20260906084029 | 81 | 216 | 2.0 | 8.0 | 0.00 | 0.00 | 0.00 | 76 | 1013.6 |
| 20260906083530 | 81 | 159 | 3.0 | 8.0 | 0.00 | 0.00 | 0.00 | 76 | 1013.6 |
| 20260906083046 | 81 | 139 | 2.0 | 8.0 | 0.00 | 0.00 | 0.00 | 75 | 1013.6 |
| 20260906082528 | 81 | 171 | 3.0 | 8.0 | 0.00 | 0.00 | 0.00 | 75 | 1013.6 |
| 20260906082030 | 81 | 174 | 2.0 | 6.0 | 0.00 | 0.00 | 0.00 | 75 | 1013.6 |
| 20260906081546 | 81 | 177 | 3.0 | 6.0 | 0.00 | 0.00 | 0.00 | 76 | 1013.5 |
| 20260906081029 | 81 | 186 | 3.0 | 6.0 | 0.00 | 0.00 | 0.00 | 75 | 1013.5 |
| 20260906080530 | 82 | 157 | 3.0 | 6.0 | 0.00 | 0.00 | 0.00 | 75 | 1013.7 |
| 20260906080057 | 82 | 162 | 3.0 | 7.0 | 0.00 | 0.00 | 0.00 | 74 | 1013.8 |
| 20260906075528 | 82 | 143 | 3.0 | 8.0 | 0.00 | 0.00 | 0.00 | 74 | 1013.8 |
| 20260906075028 | 82 | 126 | 2.0 | 8.0 | 0.00 | 0.00 | 0.00 | 74 | 1013.8 |
| 20260906074554 | 82 | 180 | 3.0 | 8.0 | 0.00 | 0.00 | 0.00 | 74 | 1013.8 |
| 20260906074028 | 82 | 159 | 2.0 | 6.0 | 0.00 | 0.00 | 0.00 | 74 | 1013.7 |
| 20260906073528 | 82 | 161 | 2.0 | 5.0 | 0.00 | 0.00 | 0.00 | 74 | 1013.7 |
| 20260906073045 | 82 | 161 | 2.0 | 5.0 | 0.00 | 0.00 | 0.00 | 74 | 1013.8 |
| 20260906072529 | 82 | 192 | 1.0 | 4.0 | 0.00 | 0.00 | 0.00 | 74 | 1013.6 |
| 20260906072029 | 82 | 0 | 1.0 | 5.0 | 0.00 | 0.00 | 0.00 | 73 | 1013.6 |
| 20260906071553 | 82 | 192 | 1.0 | 6.0 | 0.00 | 0.00 | 0.00 | 73 | 1013.7 |
| 20260906071029 | 82 | 192 | 2.0 | 6.0 | 0.00 | 0.00 | 0.00 | 73 | 1013.8 |
| 20260906070530 | 82 | 187 | 3.0 | 11.0 | 0.00 | 0.00 | 0.00 | 72 | 1013.9 |
| 20260906070054 | 82 | 208 | 3.0 | 11.0 | 0.00 | 0.00 | 0.00 | 72 | 1014.0 |
| 20260906065528 | 83 | 151 | 3.0 | 7.0 | 0.00 | 0.00 | 0.00 | 71 | 1013.9 |
| 20260906065028 | 83 | 103 | 3.0 | 7.0 | 0.00 | 0.00 | 0.00 | 71 | 1014.0 |
| 20260906064551 | 83 | 176 | 2.0 | 7.0 | 0.00 | 0.00 | 0.00 | 70 | 1014.1 |
| 20260906064028 | 83 | 152 | 3.0 | 7.0 | 0.00 | 0.00 | 0.00 | 70 | 1014.1 |
| 20260906063528 | 83 | 158 | 3.0 | 7.0 | 0.00 | 0.00 | 0.00 | 70 | 1014.0 |
| 20260906063047 | 83 | 158 | 1.0 | 8.0 | 0.00 | 0.00 | 0.00 | 69 | 1014.1 |
| 20260906062527 | 83 | 150 | 3.0 | 8.0 | 0.00 | 0.00 | 0.00 | 69 | 1013.9 |
| 20260906062029 | 83 | 0 | 2.0 | 7.0 | 0.00 | 0.00 | 0.00 | 68 | 1013.9 |
| 20260906061558 | 83 | 165 | 2.0 | 7.0 | 0.00 | 0.00 | 0.00 | 68 | 1014.1 |
| 20260906061028 | 83 | 160 | 2.0 | 8.0 | 0.00 | 0.00 | 0.00 | 68 | 1014.0 |
| 20260906060529 | 84 | 161 | 3.0 | 8.0 | 0.00 | 0.00 | 0.00 | 68 | 1014.1 |
| 20260906060055 | 84 | 167 | 4.0 | 8.0 | 0.00 | 0.00 | 0.00 | 67 | 1014.1 |
| 20260906055528 | 84 | 148 | 2.0 | 10.0 | 0.00 | 0.00 | 0.00 | 67 | 1014.0 |
| 20260906055028 | 84 | 186 | 4.0 | 10.0 | 0.00 | 0.00 | 0.00 | 67 | 1014.0 |
| 20260906054605 | 84 | 175 | 3.0 | 10.0 | 0.00 | 0.00 | 0.00 | 67 | 1014.0 |
| 20260906054028 | 84 | 148 | 2.0 | 10.0 | 0.00 | 0.00 | 0.00 | 66 | 1014.0 |
| 20260906053528 | 84 | 162 | 3.0 | 7.0 | 0.00 | 0.00 | 0.00 | 66 | 1014.2 |
| 20260906053045 | 84 | 142 | 3.0 | 8.0 | 0.00 | 0.00 | 0.00 | 66 | 1014.0 |
| 20260906052529 | 84 | 150 | 3.0 | 8.0 | 0.00 | 0.00 | 0.00 | 66 | 1013.9 |
| 20260906052028 | 84 | 207 | 4.0 | 7.0 | 0.00 | 0.00 | 0.00 | 66 | 1013.8 |
| 20260906051544 | 84 | 188 | 3.0 | 6.0 | 0.00 | 0.00 | 0.00 | 65 | 1013.9 |
| 20260906051028 | 85 | 225 | 3.0 | 9.0 | 0.00 | 0.00 | 0.00 | 65 | 1013.9 |
| 20260906050527 | 85 | 180 | 3.0 | 9.0 | 0.00 | 0.00 | 0.00 | 64 | 1014.0 |
| 20260906050044 | 85 | 165 | 3.0 | 8.0 | 0.00 | 0.00 | 0.00 | 64 | 1013.9 |
| 20260906045528 | 85 | 157 | 4.0 | 9.0 | 0.00 | 0.00 | 0.00 | 64 | 1013.9 |
| 20260906045028 | 85 | 163 | 3.0 | 10.0 | 0.00 | 0.00 | 0.00 | 64 | 1013.9 |
| 20260906044549 | 85 | 158 | 5.0 | 10.0 | 0.00 | 0.00 | 0.00 | 64 | 1013.9 |
| 20260906044028 | 85 | 160 | 4.0 | 10.0 | 0.00 | 0.00 | 0.00 | 64 | 1014.0 |
| 20260906043527 | 85 | 163 | 4.0 | 12.0 | 0.00 | 0.00 | 0.00 | 64 | 1014.0 |
| 20260906043045 | 85 | 169 | 5.0 | 12.0 | 0.00 | 0.00 | 0.00 | 64 | 1014.0 |
| 20260906042527 | 86 | 161 | 3.0 | 11.0 | 0.00 | 0.00 | 0.00 | 64 | 1014.1 |
| 20260906042028 | 86 | 189 | 2.0 | 11.0 | 0.00 | 0.00 | 0.00 | 63 | 1013.9 |
| 20260906041545 | 86 | 158 | 4.0 | 11.0 | 0.00 | 0.00 | 0.00 | 63 | 1014.0 |
| 20260906041025 | 86 | 122 | 3.0 | 9.0 | 0.00 | 0.00 | 0.00 | 63 | 1014.0 |
| 20260906040528 | 86 | 173 | 3.0 | 9.0 | 0.00 | 0.00 | 0.00 | 63 | 1013.9 |
| 20260906040048 | 86 | 136 | 4.0 | 9.0 | 0.00 | 0.00 | 0.00 | 63 | 1013.9 |
| 20260906035527 | 86 | 162 | 3.0 | 12.0 | 0.00 | 0.00 | 0.00 | 63 | 1013.9 |
| 20260906035027 | 86 | 178 | 4.0 | 13.0 | 0.00 | 0.00 | 0.00 | 63 | 1013.9 |
| 20260906034553 | 86 | 159 | 5.0 | 13.0 | 0.00 | 0.00 | 0.00 | 62 | 1013.8 |
| 20260906034024 | 86 | 173 | 6.0 | 11.0 | 0.00 | 0.00 | 0.00 | 63 | 1013.9 |
| 20260906033525 | 86 | 169 | 4.0 | 11.0 | 0.00 | 0.00 | 0.00 | 62 | 1013.8 |
| 20260906033046 | 86 | 142 | 3.0 | 11.0 | 0.00 | 0.00 | 0.00 | 62 | 1013.8 |
| 20260906032524 | 86 | 142 | 4.0 | 11.0 | 0.00 | 0.00 | 0.00 | 62 | 1013.9 |
| 20260906032031 | 86 | 153 | 2.0 | 11.0 | 0.00 | 0.00 | 0.00 | 61 | 1013.9 |
| 20260906031604 | 87 | 181 | 4.0 | 12.0 | 0.00 | 0.00 | 0.00 | 61 | 1013.9 |
| 20260906031028 | 87 | 171 | 5.0 | 12.0 | 0.00 | 0.00 | 0.00 | 61 | 1014.0 |
| 20260906030528 | 87 | 164 | 6.0 | 11.0 | 0.00 | 0.00 | 0.00 | 60 | 1014.0 |
| 20260906030042 | 87 | 152 | 3.0 | 12.0 | 0.00 | 0.00 | 0.00 | 60 | 1014.0 |
| 20260906025524 | 87 | 187 | 5.0 | 14.0 | 0.00 | 0.00 | 0.00 | 60 | 1014.0 |
| 20260906025030 | 87 | 128 | 7.0 | 14.0 | 0.00 | 0.00 | 0.00 | 59 | 1013.9 |
| 20260906024557 | 87 | 157 | 6.0 | 14.0 | 0.00 | 0.00 | 0.00 | 59 | 1013.8 |
| 20260906024026 | 87 | 157 | 4.0 | 12.0 | 0.00 | 0.00 | 0.00 | 59 | 1013.7 |
| 20260906023528 | 87 | 144 | 4.0 | 13.0 | 0.00 | 0.00 | 0.00 | 59 | 1013.6 |
| 20260906023127 | 87 | 153 | 4.0 | 13.0 | 0.00 | 0.00 | 0.00 | 58 | 1013.5 |
| 20260906022528 | 87 | 161 | 6.0 | 11.0 | 0.00 | 0.00 | 0.00 | 58 | 1013.5 |
| 20260906022029 | 87 | 144 | 5.0 | 11.0 | 0.00 | 0.00 | 0.00 | 58 | 1013.5 |
| 20260906021556 | 88 | 82 | 3.0 | 8.0 | 0.00 | 0.00 | 0.00 | 58 | 1013.5 |
| 20260906021029 | 88 | 154 | 1.0 | 7.0 | 0.00 | 0.00 | 0.00 | 58 | 1013.4 |
| 20260906020531 | 88 | 0 | 1.0 | 8.0 | 0.00 | 0.00 | 0.00 | 58 | 1013.3 |
| 20260906020052 | 88 | 0 | 2.0 | 8.0 | 0.00 | 0.00 | 0.00 | 58 | 1013.3 |
| 20260906015529 | 88 | 195 | 2.0 | 7.0 | 0.00 | 0.00 | 0.00 | 57 | 1013.3 |
| 20260906015028 | 88 | 150 | 2.0 | 10.0 | 0.00 | 0.00 | 0.00 | 57 | 1013.2 |
| 20260906014547 | 88 | 99 | 1.0 | 10.0 | 0.00 | 0.00 | 0.00 | 56 | 1013.3 |
| 20260906014029 | 89 | 130 | 3.0 | 10.0 | 0.00 | 0.00 | 0.00 | 56 | 1013.3 |
| 20260906013529 | 89 | 76 | 3.0 | 8.0 | 0.00 | 0.00 | 0.00 | 55 | 1013.1 |
| 20260906013050 | 90 | 162 | 2.0 | 8.0 | 0.00 | 0.00 | 0.00 | 54 | 1013.0 |
| 20260906012528 | 90 | 102 | 4.0 | 13.0 | 0.00 | 0.00 | 0.00 | 53 | 1012.7 |
| 20260906012028 | 91 | 188 | 4.0 | 23.0 | 0.00 | 0.00 | 0.00 | 52 | 1012.6 |
| 20260906011545 | 91 | 172 | 5.0 | 23.0 | 0.00 | 0.00 | 0.00 | 51 | 1012.4 |
| 20260906011030 | 92 | 113 | 4.0 | 14.0 | 0.00 | 0.00 | 0.00 | 50 | 1012.4 |
| 20260906010529 | 92 | 81 | 7.0 | 17.0 | 0.00 | 0.00 | 0.00 | 49 | 1012.3 |
| 20260906010053 | 93 | 180 | 6.0 | 17.0 | 0.00 | 0.00 | 0.00 | 49 | 1012.3 |
| 20260906005530 | 93 | 88 | 4.0 | 11.0 | 0.00 | 0.00 | 0.00 | 48 | 1012.2 |
| 20260906005029 | 94 | 115 | 5.0 | 12.0 | 0.00 | 0.00 | 0.00 | 47 | 1012.2 |
| 20260906004555 | 94 | 136 | 3.0 | 12.0 | 0.00 | 0.00 | 0.00 | 44 | 1012.2 |
| 20260906004027 | 94 | 150 | 1.0 | 7.0 | 0.00 | 0.00 | 0.00 | 44 | 1012.1 |
| 20260906003528 | 95 | 177 | 0.0 | 4.0 | 0.00 | 0.00 | 0.00 | 44 | 1012.1 |
| 20260906003053 | 95 | 20 | 0.0 | 8.0 | 0.00 | 0.00 | 0.00 | 44 | 1012.1 |
| 20260906002527 | 95 | 117 | 2.0 | 8.0 | 0.00 | 0.00 | 0.00 | 44 | 1012.0 |
| 20260906002028 | 95 | 118 | 2.0 | 6.0 | 0.00 | 0.00 | 0.00 | 43 | 1012.0 |
| 20260906001552 | 95 | 162 | 2.0 | 7.0 | 0.00 | 0.00 | 0.00 | 43 | 1012.2 |
| 20260906001028 | 96 | 126 | 2.0 | 7.0 | 0.00 | 0.00 | 0.00 | 42 | 1012.1 |
| 20260906000529 | 96 | 156 | 2.0 | 7.0 | 0.00 | 0.00 | 0.00 | 42 | 1012.0 |
| 20260906000058 | 96 | 150 | 1.0 | 9.0 | 0.00 | 0.00 | 0.00 | 42 | 1012.1 |
| 20260905235529 | 96 | 0 | 3.0 | 9.0 | 0.00 | 0.00 | 0.00 | 42 | 1011.9 |
| 20260905235031 | 96 | 0 | 1.0 | 7.0 | 0.00 | 0.00 | 0.00 | 41 | 1011.9 |
| 20260905234551 | 97 | 0 | 2.0 | 8.0 | 0.00 | 0.00 | 0.00 | 41 | 1011.8 |
| 20260905234028 | 97 | 110 | 1.0 | 8.0 | 0.00 | 0.00 | 0.00 | 40 | 1011.7 |
| 20260905233530 | 97 | 37 | 3.0 | 8.0 | 0.00 | 0.00 | 0.00 | 41 | 1011.8 |
| 20260905233055 | 97 | 104 | 1.0 | 9.0 | 0.00 | 0.00 | 0.00 | 41 | 1011.9 |
| 20260905232528 | 97 | 92 | 2.0 | 9.0 | 0.00 | 0.00 | 0.00 | 41 | 1011.9 |
| 20260905232028 | 97 | 86 | 3.0 | 9.0 | 0.00 | 0.00 | 0.00 | 39 | 1011.9 |
| 20260905231551 | 97 | 77 | 2.0 | 11.0 | 0.00 | 0.00 | 0.00 | 40 | 1011.8 |
| 20260905231028 | 97 | 175 | 3.0 | 12.0 | 0.00 | 0.00 | 0.00 | 41 | 1011.8 |
| 20260905230528 | 97 | 179 | 4.0 | 12.0 | 0.00 | 0.00 | 0.00 | 40 | 1011.8 |
| 20260905230046 | 98 | 169 | 2.0 | 8.0 | 0.00 | 0.00 | 0.00 | 39 | 1011.8 |
| 20260905225530 | 98 | 0 | 1.0 | 8.0 | 0.00 | 0.00 | 0.00 | 39 | 1011.7 |
| 20260905225028 | 98 | 205 | 3.0 | 7.0 | 0.00 | 0.00 | 0.00 | 38 | 1011.8 |
| 20260905224543 | 98 | 80 | 1.0 | 7.0 | 0.00 | 0.00 | 0.00 | 40 | 1011.8 |